一网星座-0412星 (ONEWEB-0412 )

导读

ONEWEB-0412是英国一网公司(OneWeb)低轨卫星互联网星座的成员,于2021年12月27日在哈萨克斯坦拜科努尔航天发射场,由俄罗斯“联盟-2.1b”运载火箭发射升空,属于该星座第12批发射的36颗卫星之一。它运行在近地轨道,旨在为全球提供高速低延迟的卫星宽带互联服务,助力OneWeb完成648颗卫星的组网计划。

基本信息
目录编号:
50489
目录名称:
ONEWEB-0412
国际标识:
2021-132W
轨道中心:
EARTH
卫星名称:
一网星座-0412星
卫星全名:
一网星座-0412星 (ONEWEB-0412 )
卫星状态:
在轨 (已飞行1723 天)
发射日期:
2021-12-27 UTC
国别 :
英国 (GB)
星等 :
--
该卫星已列入 空间交会检测服务 Space Conjunction Data Service (SCDS) ,当前飞行风险评估等级: 无高风险
轨道信息
数据来源 国际轨道数据 AOE轨道数据
星历时间 2026-09-15T23:00:47+0800
8小时前
查看轨道信息
2026-09-16T01:00:00+0800
6小时前
查看轨道信息
半长轴 7567.88km 7567.886km
偏心率 0.0002224 0.0002282
轨道倾角 87.917° 87.917°
近地点辐角 93.472° 101.228°
升交点赤经 317.488° 317.473°
平近点角 266.666° 291.716°
近地点 1188.059km 1188.022km
远地点 1191.427km 1191.476km
周期 109.200分钟 109.200分钟
每日圈数 13.186861 13.186847
详细信息
平衡模式:
三轴稳定
覆盖范围:
全球
运营商:
一网卫星公司
运营商所在国:
英国
制造商(研发单位):
一网卫星公司
制造商所在国:
英国
使用方式:
暂无
卫星简介
OneWeb卫星网络由648颗重约125公斤的微型卫星组成,运行在1200公里的轨道上。 每颗卫星都能够提供至少每秒8千兆位的吞吐量,以使用其高吞吐量的Ku频段有效载荷为家庭和移动平台提供互联网接入。该卫星仍在工作。
2D轨道图
3D轨道图
轨道高度分析图
轨道倾角分析图
轨道综合分析图
查看轨道综合分析图
交会数据列表
事件ID 空间交会对象 最接近时刻(TCA) 交会距离 交会风险概率(CRP) 交会风险指数(CRI) 操作
CDM_260916-151404-529705-048924
2026-09-16T
15:14:10+0000
2.769 km
极远距离
1.441951E-6 低风险 0.38
与全量物体交会距离演化趋势 订阅飞行安全评估服务
与全量物体交会风险概率演化趋势 订阅飞行安全评估服务